Williamtown, Australia

3:53 PM AEDT on March 25, 2017 (GMT +1100)
Williamtown Military

Weather History for YWLM - August, 2014

Change the Weather History Date:

Friday, August 29, 2014

  Actual Average Record
Temperature  
Mean Temperature 56 °F -  
Max Temperature 64 °F - - ()
Min Temperature 47 °F - - ()
Degree Days  
Heating Degree Days 10    
Growing Degree Days 6 (Base 50)    
Moisture  
Dew Point 47 °F    
Average Humidity 70    
Maximum Humidity 94    
Minimum Humidity 43    
Precipitation  
Precipitation 0.02 in - - ()
Sea Level Pressure  
Sea Level Pressure 30.23 in    
Wind  
Wind Speed 12 mph ()    
Max Wind Speed 23 mph    
Max Gust Speed 34 mph    
Visibility 6.2 miles    
Events Rain    
T = Trace of Precipitation, MM = Missing Value Source: Averaged Metar Reports

Daily Weather History Graph

Daily Weather History Graph

Search for Another Location

Airport or City:

Trip Planner

Search our weather history database for the weather conditions in past years. The results will help you decide how hot, cold, wet, or windy it might be!

Date:

Astronomy

Aug. 29, 2014 Rise Set
Actual Time 6:14 AM AEST 5:33 PM AEST
Civil Twilight 5:49 AM AEST 5:58 PM AEST
Nautical Twilight 5:21 AM AEST 6:27 PM AEST
Astronomical Twilight 4:52 AM AEST 6:55 PM AEST
Moon 7:54 AM AEST (8/29) 8:50 PM AEST (8/29)
Length of Visible Light 12h 08m
Length of Day
11h 18m
Waxing Crescent, 11% of the Moon is Illuminated
Aug 29
Waxing Crescent
Sep 2
First Quarter
Sep 9
Full
Sep 16
Last Quarter
Sep 24
New

Hourly Weather History & Observations

Time (AEST) Temp. Dew Point Humidity Pressure Visibility Wind Dir Wind Speed Gust Speed Precip Events Conditions
12:00 AM 52 °F 47 °F 77% 30.30 in - West 10.4 mph - -   Overcast
12:00 AM 51.8 °F 46.4 °F 82% 30.30 in 6.2 mi West 10.4 mph - N/A   Scattered Clouds
12:30 AM 51.8 °F 46.4 °F 82% 30.27 in 6.2 mi West 9.2 mph - N/A   Scattered Clouds
1:00 AM 52 °F 47 °F 76% 30.29 in - West 9.2 mph - -  
1:00 AM 51.8 °F 46.4 °F 82% 30.27 in - West 9.2 mph - N/A   Mostly Cloudy
1:30 AM 51.8 °F 46.4 °F 82% 30.27 in 6.2 mi West 9.2 mph - N/A   Scattered Clouds
2:00 AM 50.0 °F 46.4 °F 87% 30.27 in 6.2 mi West 10.4 mph - N/A   Unknown
2:30 AM 50.0 °F 46.4 °F 87% 30.24 in 6.2 mi West 10.4 mph - N/A   Scattered Clouds
3:00 AM 50 °F 46 °F 81% 30.27 in - West 9.2 mph - -   Overcast
3:00 AM 50.0 °F 46.4 °F 87% 30.24 in 6.2 mi West 9.2 mph - N/A   Scattered Clouds
3:30 AM 51.8 °F 46.4 °F 82% 30.24 in 6.2 mi WSW 11.5 mph - N/A Rain Light Rain Showers
4:00 AM 51 °F 47 °F 80% 30.26 in - West 10.4 mph - -  
4:00 AM 50.0 °F 46.4 °F 87% 30.24 in 6.2 mi West 10.4 mph - N/A   Scattered Clouds
4:30 AM 50.0 °F 46.4 °F 87% 30.24 in 6.2 mi West 9.2 mph - N/A   Scattered Clouds
5:00 AM 48.2 °F 46.4 °F 93% 30.24 in 6.2 mi WNW 8.1 mph - N/A   Scattered Clouds
5:30 AM 48.2 °F 46.4 °F 93% 30.24 in 6.2 mi West 8.1 mph - N/A   Scattered Clouds
6:00 AM 49 °F 46 °F 87% 30.28 in - West 8.1 mph - -   Overcast
6:00 AM 48.2 °F 46.4 °F 93% 30.27 in 6.2 mi West 8.1 mph - N/A   Mostly Cloudy
6:30 AM 50.0 °F 48.2 °F 94% 30.27 in 6.2 mi WSW 15.0 mph - N/A   Scattered Clouds
7:00 AM 51 °F 48 °F 87% 30.28 in - West 11.5 mph - -  
7:00 AM 51.8 °F 48.2 °F 88% 30.27 in 6.2 mi West 11.5 mph - N/A   Scattered Clouds
7:30 AM 51.8 °F 48.2 °F 88% 30.27 in 6.2 mi WSW 10.4 mph - N/A   Mostly Cloudy
8:00 AM 53.6 °F 50.0 °F 88% 30.27 in 6.2 mi WSW 11.5 mph - N/A   Mostly Cloudy
8:30 AM 53.6 °F 50.0 °F 88% 30.27 in 6.2 mi West 11.5 mph - N/A   Scattered Clouds
9:00 AM 56 °F 48 °F 68% 30.30 in - WSW 15.0 mph - -   Overcast
9:00 AM 57.2 °F 48.2 °F 72% 30.30 in 6.2 mi WSW 15.0 mph - N/A Rain Light Rain Showers
9:30 AM 57.2 °F 48.2 °F 72% 30.27 in 6.2 mi SW 15.0 mph - N/A   Scattered Clouds
10:00 AM 60 °F 49 °F 57% 30.28 in - SW 16.1 mph - -  
10:00 AM 60.8 °F 48.2 °F 63% 30.27 in 6.2 mi SW 16.1 mph - N/A   Scattered Clouds
10:30 AM 59.0 °F 48.2 °F 67% 30.27 in 6.2 mi SW 17.3 mph - N/A   Scattered Clouds
11:00 AM 60.8 °F 48.2 °F 63% 30.27 in 6.2 mi SSW 15.0 mph - N/A   Scattered Clouds
11:30 AM 62.6 °F 48.2 °F 59% 30.24 in 6.2 mi SSW 16.1 mph - N/A   Scattered Clouds
12:00 PM 64 °F 47 °F 43% 30.25 in - SW 20.7 mph - -   Overcast
12:00 PM 64.4 °F 46.4 °F 52% 30.24 in 6.2 mi SW 20.7 mph - N/A   Scattered Clouds
12:30 PM 62.6 °F 46.4 °F 55% 30.24 in 6.2 mi SSW 19.6 mph - N/A   Scattered Clouds
1:00 PM 64 °F 47 °F 43% 30.23 in - SSW 20.7 mph - -  
1:00 PM 64.4 °F 46.4 °F 52% 30.21 in 6.2 mi SSW 20.7 mph - N/A   Scattered Clouds
1:23 PM 64.4 °F 46.4 °F 52% 30.21 in 6.2 mi SSW 18.4 mph 29.9 mph N/A   Partly Cloudy
1:30 PM 64.4 °F 48.2 °F 56% 30.21 in 6.2 mi SSW 19.6 mph - N/A   Scattered Clouds
1:43 PM 64.4 °F 48.2 °F 56% 30.21 in 6.2 mi SSW 17.3 mph 28.8 mph N/A   Scattered Clouds
2:00 PM 62.6 °F 46.4 °F 55% 30.21 in 6.2 mi SSW 18.4 mph - N/A   Scattered Clouds
2:12 PM 62.6 °F 46.4 °F 55% 30.21 in 6.2 mi SSW 17.3 mph 28.8 mph N/A   Mostly Cloudy
2:30 PM 60.8 °F 48.2 °F 63% 30.21 in 6.2 mi SSW 19.6 mph - N/A   Mostly Cloudy
3:00 PM 59 °F 52 °F 69% 30.22 in - South 20.7 mph - -   Overcast
3:00 PM 59.0 °F 51.8 °F 77% 30.21 in 6.2 mi South 20.7 mph - N/A Rain Light Rain Showers
3:37 PM 59.0 °F 51.8 °F 77% 30.18 in 6.2 mi SSW 17.3 mph 29.9 mph N/A Rain Light Rain Showers
4:00 PM 60 °F 52 °F 67% 30.20 in - SSW 16.1 mph - -  
4:00 PM 60.8 °F 51.8 °F 72% 30.18 in 6.2 mi SSW 16.1 mph - N/A   Scattered Clouds
4:30 PM 60.8 °F 50.0 °F 68% 30.18 in 6.2 mi SW 17.3 mph - N/A   Mostly Cloudy
4:48 PM 59.0 °F 51.8 °F 77% 30.18 in 6.2 mi SSW 18.4 mph 29.9 mph N/A Rain Light Rain Showers
5:00 PM 59.0 °F 50.0 °F 72% 30.18 in 6.2 mi SSW 17.3 mph - N/A Rain Light Rain Showers
5:30 PM 59.0 °F 50.0 °F 72% 30.18 in 6.2 mi SSW 16.1 mph 27.6 mph N/A   Overcast
6:00 PM 57 °F 50 °F 70% 30.22 in - SW 15.0 mph - -   Overcast
6:00 PM 57.2 °F 50.0 °F 77% 30.21 in 6.2 mi SW 15.0 mph - N/A   Overcast
6:30 PM 57.2 °F 48.2 °F 72% 30.21 in 6.2 mi SW 15.0 mph - N/A   Mostly Cloudy
7:00 PM 58 °F 47 °F 58% 30.22 in - SSW 16.1 mph - -  
7:00 PM 59.0 °F 48.2 °F 67% 30.21 in 6.2 mi SSW 16.1 mph - N/A   Mostly Cloudy
7:07 PM 59.0 °F 44.6 °F 59% 30.21 in 6.2 mi SSW 18.4 mph 29.9 mph N/A   Scattered Clouds
7:35 PM 59.0 °F 42.8 °F 55% 30.21 in 6.2 mi SSW 23.0 mph 34.5 mph N/A   Scattered Clouds
8:01 PM 59.0 °F 41.0 °F 51% 30.21 in 6.2 mi SSW 20.7 mph 32.2 mph N/A   Scattered Clouds
8:31 PM 59.0 °F 41.0 °F 51% 30.21 in 6.2 mi SSW 20.7 mph 32.2 mph N/A   Scattered Clouds
9:00 PM 57 °F 46 °F 56% 30.22 in - SW 12.7 mph - -   Overcast
9:00 PM 57.2 °F 46.4 °F 67% 30.21 in 6.2 mi SW 12.7 mph - N/A   Mostly Cloudy
9:30 PM 57.2 °F 44.6 °F 63% 30.21 in 6.2 mi WSW 12.7 mph - N/A   Overcast
10:00 PM 57 °F 44 °F 52% 30.21 in - WSW 12.7 mph - -  
10:00 PM 57.2 °F 44.6 °F 63% 30.18 in 6.2 mi WSW 12.7 mph - N/A   Overcast
10:30 PM 57.2 °F 44.6 °F 63% 30.18 in 6.2 mi WSW 15.0 mph - N/A   Overcast
11:00 PM 57.2 °F 44.6 °F 63% 30.18 in 6.2 mi WSW 17.3 mph - N/A   Overcast
11:30 PM 57.2 °F 42.8 °F 59% 30.18 in 6.2 mi WSW 15.0 mph - N/A   Overcast